[[{"header":{"parameterUnit":"m.s-1","parameterCategory":1,"la1":30.2991,"la2":30.254,"lo1":-89.0895,"lo2":-89.0444,"dy":0.0017,"dx":0.0017,"nx":28,"ny":28,"refTime":"2023-10-17T21:00:00:Z","depth":0,"parameterNumber":2,"parameterNumberName":"U-component_of_WINDS"},"data":[0,0,0,0,0,0,0,0,0,0,0,0,0,0,0,0,0,0,0,0,0,0,0,0,0,0,0,0,0,0,0,0,0,0,0,0,0,0,0,0,0,0,0,0,0,0,0,0,0,0,0,0,0,0,0,0,0,0,-2.061,-2.0611,0,-2.0627,-2.0627,-2.0627,-2.0599,-2.0599,-2.0598,-2.0597,-2.0613,-2.0614,-2.0615,0,0,0,0,0,0,0,0,0,0,0,0,0,-2.0557,-2.0558,-2.061,-2.0611,-2.0611,-2.0627,-2.0627,-2.0627,-2.06,-2.0599,-2.0597,-2.0596,-2.0612,-2.0614,-2.0615,0,0,0,0,0,0,0,0,0,0,0,0,0,-2.0578,-2.0559,-2.061,-2.0599,-2.0598,-2.0626,-2.0627,-2.0627,-2.06,-2.0598,-2.0597,-2.0596,-2.0612,-2.0613,-2.0615,-2.0655,0,0,-2.0621,-2.0622,0,0,0,0,0,0,0,0,-2.0576,-2.058,-2.0601,-2.06,-2.0599,-2.061,-2.0614,-2.0636,-2.06,-2.0599,-2.0597,-2.0595,-2.0613,-2.0614,-2.062,-2.0656,-2.0657,-2.0621,-2.0623,-2.0623,-2.0624,0,0,0,0,0,0,0,-2.0575,-2.0579,-2.0617,-2.0601,-2.06,-2.0594,-2.0595,-2.0618,-2.0613,-2.0599,-2.0597,-2.06,-2.0612,-2.0619,-2.0621,-2.0657,-2.0621,-2.0623,-2.0624,-2.0625,-2.0728,-2.0729,0,0,0,0,0,0,-2.0575,-2.0578,-2.0616,-2.0617,-2.0584,-2.0596,-2.0597,-2.0608,-2.0613,-2.0613,-2.0601,-2.0598,-2.0616,-2.0618,-2.0621,-2.0668,-2.0623,-2.0625,-2.0626,-2.0726,-2.0728,-2.073,0,0,0,0,0,0,-2.0574,-2.0579,-2.0616,-2.0597,-2.0601,-2.0598,-2.061,-2.0609,-2.0615,-2.0614,-2.0613,-2.0608,-2.0615,-2.0618,-2.0647,-2.0668,-2.0626,-2.0628,-2.0724,-2.0727,-2.0729,-2.0763,0,0,0,0,0,0,-2.0573,-2.0578,-2.0593,-2.0598,-2.0602,-2.0641,-2.0611,-2.061,-2.0619,-2.0616,-2.0621,-2.0621,-2.0614,-2.0645,-2.0649,-2.067,-2.0629,-2.0722,-2.0725,-2.0728,-2.076,-2.0766,-2.0771,0,0,0,0,0,-2.0571,-2.0601,-2.0594,-2.0598,-2.062,-2.0642,-2.0645,-2.0637,-2.0621,-2.0635,-2.0635,-2.0621,-2.0666,-2.0648,-2.0653,-2.0675,-2.0721,-2.0724,-2.0728,-2.0757,-2.0765,-2.0771,0,0,0,0,0,0,-2.0598,-2.0601,-2.0593,-2.0626,-2.0634,-2.0638,-2.0655,-2.0645,-2.0658,-2.0654,-2.0644,-2.0646,-2.0677,-2.0679,-2.0659,-2.0715,-2.0691,-2.0695,-2.0711,-2.0719,-2.0724,-2.0722,-2.0631,0,0,0,0,0,-2.0608,-2.0625,-2.0628,-2.0656,-2.0661,-2.0658,-2.0667,-2.0661,-2.0669,-2.0672,-2.0674,-2.0682,-2.0698,-2.0709,-2.0724,-2.0761,-2.0762,-2.0779,-2.0785,-2.079,-2.0793,-2.0814,-2.0822,-2.0741,-2.0741,-2.0741,0,0,-2.0628,-2.0632,-2.0643,-2.0662,-2.0667,-2.0686,-2.0661,-2.0681,-2.0695,-2.0675,-2.0702,-2.0705,-2.0713,-2.0747,-2.0762,-2.075,-2.0816,-2.0794,-2.0798,-2.0799,-2.0819,-2.0826,-2.0833,-2.0744,-2.0743,-2.0743,0,0,-2.0674,-2.0679,-2.0704,-2.0711,-2.072,-2.0719,-2.0725,-2.0731,-2.0732,-2.076,-2.0745,-2.0763,-2.0791,-2.0798,-2.0805,-2.0859,-2.0845,-2.0864,-2.0893,-2.0914,-2.092,-2.0926,-2.0944,-2.0951,-2.0868,-2.0868,-2.0868,0,-2.0697,-2.0724,-2.0718,-2.074,-2.0749,-2.0734,-2.0759,-2.0766,-2.078,-2.0787,-2.0774,-2.081,-2.0815,-2.085,-2.0864,-2.0871,-2.0878,-2.0861,-2.092,-2.0925,-2.093,-2.0948,-2.0955,-2.087,-2.087,-2.087,-2.0869,0,-2.0753,-2.0773,-2.0792,-2.0807,-2.0818,-2.0842,-2.084,-2.0853,-2.0847,-2.0847,-2.0876,-2.0883,-2.0899,-2.0908,-2.0901,-2.0943,-2.0935,-2.0922,-2.0897,-2.094,-2.0957,-2.0963,-2.0873,-2.0872,-2.0872,-2.0871,0,0,-2.0812,-2.0826,-2.0833,-2.084,-2.0851,-2.0866,-2.0891,-2.0908,-2.0919,-2.0931,-2.0951,-2.0977,-2.0965,-2.0973,-2.0969,-2.0987,-2.1029,-2.0971,-2.0971,-2.0981,-2.1076,-2.1084,-2.1092,-2.1022,-2.1023,-2.1024,-2.1075,0,-2.0857,-2.0898,-2.0895,-2.0934,-2.0953,-2.0941,-2.0962,-2.0972,-2.0974,-2.0991,-2.0993,-2.1011,-2.0995,-2.1,-2.1018,-2.102,-2.1048,-2.1017,-2.104,-2.1041,-2.1036,-2.1101,-2.111,-2.1156,-2.1081,-2.1082,-2.1083,0,-2.0913,-2.0928,-2.097,-2.0981,-2.0988,-2.1007,-2.1024,-2.104,-2.1052,-2.1052,-2.1064,-2.1057,-2.1082,-2.106,-2.1095,-2.1074,-2.1084,-2.1087,-2.1089,-2.1089,-2.1063,-2.1101,-2.1171,-2.1178,-2.1093,-2.1092,-2.1091,0,-2.0951,-2.0982,-2.1011,-2.1018,-2.1031,-2.1045,-2.1051,-2.1062,-2.1073,-2.1089,-2.1096,-2.1114,-2.1123,-2.1138,-2.1136,-2.112,-2.1172,-2.1149,-2.1173,-2.1173,-2.1181,-2.118,-2.1252,-2.1192,-2.1191,-2.1191,-2.1191,0,-2.1,-2.1026,-2.1028,-2.1046,-2.1075,-2.1072,-2.1101,-2.1106,-2.1117,-2.1135,-2.1127,-2.1145,-2.1143,-2.1161,-2.1161,-2.119,-2.1195,-2.1196,-2.1195,-2.1195,-2.1195,-2.1199,-2.1195,-2.1193,-2.1193,-2.1192,-2.1192,0,-2.1045,-2.1048,-2.1079,-2.1091,-2.1095,-2.1115,-2.1125,-2.1143,-2.1146,-2.117,-2.1176,-2.118,-2.1202,-2.1203,-2.1227,-2.1227,-2.1263,-2.1259,-2.1258,-2.1257,-2.128,-2.1277,-2.1356,-2.1366,-2.13,-2.1301,-2.1301,0,-2.1075,-2.1095,-2.111,-2.1122,-2.113,-2.115,-2.1162,-2.1162,-2.1175,-2.1192,-2.1208,-2.1229,-2.1245,-2.1281,-2.1286,-2.1306,-2.1301,-2.1328,-2.1304,-2.1304,-2.13,-2.1298,-2.13,-2.1331,-2.1332,-2.1333,-2.1333,0,-2.1128,-2.1129,-2.1147,-2.1167,-2.1182,-2.1197,-2.1211,-2.1222,-2.1224,-2.1239,-2.1262,-2.1275,-2.1302,-2.1323,-2.1342,-2.1349,-2.1342,-2.1342,-2.1348,-2.1347,-2.1345,-2.1346,-2.1269,-2.1339,-2.1338,-2.1338,-2.1337,-2.1337,-2.1165,-2.1183,-2.1197,-2.1218,-2.1229,-2.1243,-2.126,-2.1267,-2.1286,-2.1308,-2.1307,-2.1332,-2.1346,-2.1372,-2.1381,-2.1401,-2.1392,-2.1401,-2.1403,-2.1405,-2.1407,-2.1345,-2.1405,-2.1405,-2.1405,-2.1405,-2.1405,0,-2.1216,-2.1226,-2.1245,-2.1266,-2.1284,-2.1277,-2.1294,-2.1308,-2.133,-2.1345,-2.1362,-2.1389,-2.1411,-2.142,-2.1441,-2.1456,-2.1453,-2.1461,-2.1459,-2.146,-2.1414,-2.1406,-2.1463,-2.1463,-2.1463,-2.1463,-2.1463,-2.1463,-2.1244,-2.1274,-2.1278,-2.1314,-2.1323,-2.1348,-2.1358,-2.1372,-2.1383,-2.1414,-2.1432,-2.1439,-2.1451,-2.1474,-2.1494,-2.1496,-2.1503,-2.1513,-2.1514,-2.147,-2.1464,-2.1458,-2.145,-2.1515,-2.1515,-2.1558,-2.1558,-2.1559]},{"header":{"parameterUnit":"m.s-1","parameterCategory":1,"la1":30.2991,"la2":30.254,"lo1":-89.0895,"lo2":-89.0444,"dy":0.0017,"dx":0.0017,"nx":28,"ny":28,"refTime":"2023-10-17T21:00:00:Z","depth":0,"parameterNumber":3,"parameterNumberName":"V-component_of_WINDS"},"data":[0,0,0,0,0,0,0,0,0,0,0,0,0,0,0,0,0,0,0,0,0,0,0,0,0,0,0,0,0,0,0,0,0,0,0,0,0,0,0,0,0,0,0,0,0,0,0,0,0,0,0,0,0,0,0,0,0,0,2.1938,2.1937,0,2.1872,2.1871,2.1871,2.1893,2.1894,2.1895,2.1897,2.1823,2.182,2.1817,0,0,0,0,0,0,0,0,0,0,0,0,0,2.2077,2.2075,2.1938,2.1937,2.1936,2.1872,2.1871,2.187,2.1892,2.1894,2.1896,2.1898,2.1825,2.1821,2.1817,0,0,0,0,0,0,0,0,0,0,0,0,0,2.2014,2.2074,2.1938,2.194,2.1939,2.1872,2.1871,2.187,2.1892,2.1894,2.1896,2.1898,2.1826,2.1821,2.1816,2.1742,0,0,2.1801,2.1799,0,0,0,0,0,0,0,0,2.2018,2.2009,2.194,2.1939,2.1939,2.1893,2.1894,2.1827,2.1891,2.191,2.1897,2.1899,2.1844,2.1838,2.1821,2.1739,2.1736,2.1801,2.1798,2.1795,2.1794,0,0,0,0,0,0,0,2.2022,2.2012,2.1912,2.1939,2.1938,2.1942,2.1935,2.1881,2.1865,2.1908,2.191,2.1902,2.1844,2.1826,2.1819,2.1734,2.1801,2.1796,2.1793,2.1791,2.1588,2.1586,0,0,0,0,0,0,2.2028,2.2016,2.1914,2.191,2.1985,2.1938,2.193,2.1905,2.1866,2.1862,2.19,2.1903,2.1833,2.1825,2.1817,2.1727,2.1795,2.1791,2.1788,2.159,2.1587,2.1585,0,0,0,0,0,0,2.2031,2.2019,2.1916,2.1963,2.195,2.1933,2.1905,2.1903,2.1884,2.186,2.1857,2.1884,2.1834,2.1824,2.1761,2.1725,2.1789,2.1784,2.1593,2.1589,2.1586,2.1547,0,0,0,0,0,0,2.2035,2.2019,2.1992,2.1962,2.1948,2.1863,2.1902,2.19,2.1876,2.188,2.1844,2.184,2.1835,2.1768,2.1756,2.1719,2.178,2.1596,2.1592,2.1587,2.1552,2.1543,2.1535,0,0,0,0,0,2.204,2.1983,2.1991,2.1978,2.1914,2.1861,2.1852,2.1849,2.1873,2.1845,2.183,2.1841,2.1731,2.1762,2.1748,2.1709,2.1599,2.1593,2.1588,2.1555,2.1544,2.1535,0,0,0,0,0,0,2.2006,2.1979,2.1987,2.1919,2.1893,2.1865,2.1829,2.1838,2.1802,2.1806,2.1803,2.1794,2.173,2.1713,2.1748,2.1635,2.1668,2.166,2.1648,2.1638,2.163,2.1634,2.1776,0,0,0,0,0,2.1991,2.1953,2.193,2.1872,2.1858,2.1846,2.1823,2.1823,2.1794,2.1782,2.1763,2.1733,2.1691,2.1664,2.1624,2.155,2.1542,2.1517,2.1508,2.1502,2.1494,2.1453,2.1441,2.1567,2.1567,2.1567,0,0,2.1959,2.194,2.1915,2.1865,2.1844,2.1802,2.1836,2.179,2.1759,2.1775,2.1715,2.1699,2.1665,2.1596,2.1565,2.1581,2.1458,2.1495,2.149,2.1485,2.1446,2.1434,2.1423,2.1563,2.1564,2.1564,0,0,2.1879,2.1861,2.1811,2.179,2.1759,2.1752,2.174,2.1711,2.1702,2.1642,2.1653,2.1615,2.1544,2.1519,2.1497,2.141,2.1419,2.1397,2.1353,2.1313,2.1303,2.1294,2.1262,2.1251,2.139,2.139,2.139,0,2.1843,2.1782,2.1783,2.1737,2.1714,2.173,2.1678,2.1657,2.1614,2.1597,2.1616,2.1528,2.1506,2.1431,2.141,2.1392,2.1377,2.14,2.1305,2.1296,2.1288,2.1257,2.1245,2.1387,2.1387,2.1388,2.1388,0,2.1738,2.1696,2.1659,2.1619,2.1592,2.1543,2.1536,2.1508,2.1511,2.1501,2.144,2.1415,2.1371,2.1353,2.1355,2.1279,2.1289,2.1307,2.1339,2.1273,2.1244,2.1232,2.1384,2.1384,2.1385,2.1386,0,0,2.1634,2.1597,2.1583,2.1565,2.1533,2.1499,2.1451,2.141,2.1386,2.1356,2.1314,2.1255,2.1271,2.1246,2.1245,2.121,2.1142,2.1232,2.1231,2.1215,2.1055,2.1041,2.1027,2.1148,2.1146,2.1144,2.1057,0,2.155,2.1467,2.1467,2.139,2.135,2.1365,2.1322,2.1297,2.1287,2.125,2.1238,2.1196,2.1221,2.1206,2.1172,2.1157,2.1109,2.1164,2.1107,2.1105,2.1114,2.1012,2.0997,2.0916,2.1046,2.1044,2.1043,0,2.1442,2.1411,2.133,2.1304,2.1287,2.1249,2.1212,2.1177,2.1149,2.1143,2.1117,2.1122,2.1071,2.1107,2.1035,2.1073,2.105,2.1039,2.1036,2.1029,2.1069,2.1001,2.0891,2.0878,2.1025,2.1026,2.1028,0,2.1372,2.131,2.1253,2.1238,2.1206,2.1179,2.1164,2.1138,2.1114,2.1081,2.1064,2.1025,2.1003,2.0972,2.0965,2.0992,2.0894,2.0929,2.0886,2.0886,2.0863,2.0865,2.0746,2.0851,2.0851,2.0852,2.0852,0,2.1278,2.1228,2.1222,2.1187,2.1131,2.1131,2.1075,2.1062,2.1039,2.1,2.101,2.0974,2.0968,2.093,2.0925,2.0866,2.0856,2.0849,2.0848,2.0848,2.0848,2.0831,2.0836,2.0848,2.0849,2.085,2.085,0,2.119,2.1185,2.1124,2.11,2.1093,2.1052,2.1031,2.0996,2.0988,2.0939,2.0928,2.0914,2.0869,2.0861,2.0807,2.0804,2.0734,2.0739,2.0744,2.0744,2.0701,2.0705,2.0566,2.0547,2.0666,2.0665,2.0664,0,2.113,2.1092,2.1065,2.1041,2.1025,2.0986,2.0962,2.0961,2.0935,2.09,2.087,2.0827,2.0792,2.072,2.0704,2.0663,2.0667,2.0621,2.066,2.0661,2.0665,2.0666,2.0662,2.0613,2.0612,2.0611,2.061,0,2.1024,2.1023,2.0989,2.0953,2.0924,2.0896,2.0869,2.0848,2.0843,2.0813,2.0769,2.0743,2.069,2.0646,2.0606,2.0589,2.0597,2.0598,2.0586,2.0584,2.0588,2.0584,2.0722,2.06,2.0601,2.0602,2.0603,2.0603,2.0947,2.0914,2.089,2.0851,2.0831,2.0806,2.0772,2.0761,2.0725,2.0683,2.0684,2.0635,2.0607,2.0555,2.0535,2.0496,2.051,2.0493,2.0488,2.0483,2.0479,2.0596,2.0489,2.0489,2.0489,2.0489,2.049,0,2.084,2.0826,2.079,2.0753,2.0722,2.0736,2.0707,2.068,2.0638,2.0612,2.0579,2.0528,2.0486,2.0467,2.0426,2.0398,2.0401,2.0387,2.0388,2.0384,2.0469,2.0483,2.0385,2.0385,2.0386,2.0386,2.0386,2.0386,2.0781,2.0725,2.0722,2.0656,2.0642,2.0596,2.0578,2.0554,2.0534,2.0477,2.0443,2.0432,2.0409,2.0366,2.0329,2.0324,2.0308,2.0291,2.0289,2.0368,2.0378,2.0388,2.0402,2.0288,2.0288,2.0207,2.0206,2.0206]}]]